Location: Caltech
(34.1382°N, 118.1253°W)
Time: 21:46:08
(UTC-07:00)

SO-67 - Visible Passes

Search period start: 21 October 2014 00:00
Search period end: 31 October 2014 00:00
Orbit: 458 x 462 km, 97.2° (Epoch: 21 October)

Date Brightness Start Highest point End Pass type
(mag) Time Alt. Az. Time Alt. Az. Time Alt. Az.
21 Oct ? 18:37:23 10° ESE 18:40:04 21° ENE 18:42:45 10° NNE visible
21 Oct ? 20:10:54 10° SW 20:12:58 15° W 20:15:03 10° WNW visible
22 Oct ? 19:37:51 10° S 19:41:07 42° W 19:44:25 10° NNW visible
23 Oct ? 19:06:00 10° SSE 19:09:22 58° ENE 19:12:45 10° N visible
24 Oct ? 18:35:08 10° ESE 18:37:42 20° ENE 18:40:17 10° NNE visible
24 Oct ? 20:08:22 10° SW 20:10:35 16° W 20:12:49 10° NW visible
25 Oct ? 19:35:20 10° S 19:38:38 46° W 19:41:58 10° NNW visible
26 Oct ? 19:03:27 10° SSE 19:06:47 53° ENE 19:10:09 10° N visible
27 Oct ? 18:32:35 10° ESE 18:35:02 19° ENE 18:37:30 10° NNE visible
27 Oct ? 20:05:30 10° SW 20:07:52 18° W 20:10:15 10° NW visible
28 Oct ? 19:32:30 10° S 19:35:50 51° W 19:39:12 10° NNW visible
29 Oct ? 19:00:35 10° SSE 19:03:53 48° ENE 19:07:13 10° N visible
30 Oct ? 18:29:45 10° ESE 18:32:03 17° ENE 18:34:22 10° NNE visible
30 Oct ? 20:02:20 10° SW 20:04:51 19° W 20:07:23 10° NW visible
